Tracking 19484 objects as of 20-Jan-2019
HD Live streaming from Space Station
objects crossing your sky now

NAVSTAR 36 (USA 100)

Track NAVSTAR 36 (USA 100) now!
NAVSTAR 36 (USA 100) is classified as:


NORAD ID: 23027
Int'l Code: 1994-016A
Perigee: 19,821.5 km
Apogee: 20,557.1 km
Inclination: 54.9 °
Period: 718.0 minutes
Semi major axis: 26560 km
RCS: 2.0263 m2 (large)
Launch date: March 10, 1994
Source: United States (US)
Launch site: AIR FORCE EASTERN TEST RANGE (AFETR)
aabbcc
Your satellite tracking list
Your tracking list is empty




NASA's NSSDC Master Catalog

Two Line Element Set (TLE):
1 23027U 94016A   19019.67188550 -.00000055  00000-0  00000+0 0  9994
2 23027  54.9474  11.4788 0138473  32.8840 185.4129  2.00563866182174
Source of the keplerian elements: AFSPC